Back to catalog

FREGAT R/B

AliveMEO
NORAD 41551·ROCKET BODY·🇷🇺 Russia

Launched May 24, 2016 from Guiana Space Centre

Loading…

Next Passes (next 24 hours)

TLE

FreshSource: Space-Track

Epoch: Sep 11, 2026, 14:58 UTC

1 41551U 16030C   26254.62400565  .00000000  00000-0  00000+0 0  9992
2 41551  54.9507 222.7522 0022946 240.9782 118.7379  1.67596794 63071

Track FREGAT R/B in real time with AllMySat

Download on the App Store